Regional Weather Roundup
Issued by NWS Grand Forks, ND

Home | Current Version | Previous Version | Text Only | Print | Product List | Glossary On
Versions: 1 2 3 4 5 6 7 8 9 10 11 12 13 14 15 16 17 18 19 20 21 22 23 24 25 26 27 28 29 30 31 32 33 34 35 36 37 38 39 40 41 42 43 44 45 46 47 48 49 50
000
ASUS43 KFGF 230731
RWRFGF
PRAIRIE TO PINES  WEATHER ROUNDUP
NATIONAL WEATHER SERVICE EASTERN NORTH DAKOTA/GRAND FORKS ND
200 AM CDT MON APR 23 2018

 **SATELLITE DATA USED TO AUGMENT SKY COVER AT AUTOMATED STATIONS**
 *****  WEATHER ACROSS EASTERN NORTH DAKOTA  *****

CITY           SKY/WX    TMP DP  RH WIND       PRES   REMARKS
GRAND FORKS    CLOUDY    45  42  89 S8        30.11S
GRAND FRKS AFB FAIR      47  39  74 SW8       30.11S
GRAND FRKS NWS   N/A     46  42  84 SW12      30.09S
DEVILS LAKE    FAIR      40  35  83 SW3       30.11S
FARGO          FAIR      46  38  73 S13       30.16S
WAHPETON ARPT  FAIR      39  34  81 S7        30.19S
$$

 ***** WEATHER ACROSS CENTRAL AND WESTERN NORTH DAKOTA  *****

CITY           SKY/WX    TMP DP  RH WIND       PRES   REMARKS
BISMARCK       FAIR      45  38  76 SE8       30.14R
MINOT          FAIR      42  32  67 NW9       30.13R
JAMESTOWN      FAIR      41  36  82 S7        30.14F
MINOT AFB      FAIR      38  30  73 NW12      30.13R
GARRISON         N/A     38  33  82 NW3       30.12R
WILLISTON      FAIR      40  28  62 N7        30.17R
DICKINSON      FAIR      45  31  58 E6        30.11S
HETTINGER      FAIR      47  35  63 CALM      30.12R
$$

 *****  OTHER AIRPORT OBSERVATIONS IN OUR AREA  *****

CITY           SKY/WX    TMP DP  RH WIND       PRES   REMARKS
WALHALLA       FAIR      50  37  62 W9        30.09R
GRAFTON AIRPOR NOT AVBL
VALLEY CITY AR NOT AVBL
CANDO          FAIR      41  32  70 NW7       30.13R
CAVALIER APRT    N/A     45  37  76 SW5       30.07F
GWINNER          N/A     41  37  87 SW12      30.17S
SHEYENNE NWR     N/A     40  40 100 SW3       29.95S
ROLLA          FAIR      39  30  70 NW13      30.12S
 ***** THE ABOVE OBSERVATIONS ARE NON NWS ARE NOT QUALITY
       CONTROLLED AND MAY MIS-REPORT RAIN FOR SNOW...
$$

  *****  WEATHER ACROSS NORTHERN MINNESOTA  *****

CITY           SKY/WX    TMP DP  RH WIND       PRES   REMARKS
FLAG ISLAND    FAIR      45  37  76 SW14      30.07S
WARROAD        FAIR      48  39  71 SW12G17   30.10S
ROSEAU         MOCLDY    50  43  76 SW13      30.09F
HALLOCK        FAIR      45  43  93 S8        30.09S
THF RVR FALLS  CLOUDY    48  38  68 S15       30.14F
BAUDETTE       FAIR      50  38  63 SW8       30.11S
WASKISH        MOCLDY    52  36  54 SW8       30.15S
CROOKSTON      MOCLDY    46  39  76 S15       30.14S
STEPHEN NDAWN    N/A     48  43  81 S14         N/A
GREENBUSH NDAW   N/A     48  41  76 S14         N/A
$$
  *****  WEATHER ACROSS CENTRAL AND WEST MINNESOTA  *****

CITY           SKY/WX    TMP DP  RH WIND       PRES   REMARKS
FOSSTON        CLOUDY    43  36  75 S13       30.17S
BEMIDJI        FAIR      45  33  61 SW6       30.17S
PARK RAPIDS    FAIR      41  34  76 CALM      30.19S
ELBOW LAKE     FAIR      36  33  88 S8        30.21S
WADENA         FAIR      37  34  87 CALM      30.20S
DETROIT LAKES  FAIR      43  34  70 S7        30.20S
MOORHEAD       FAIR      43  37  81 S12       30.18F
FERGUS FALLS   FAIR      39  34  81 S7        30.19S
MORRIS MN      FAIR      39  34  81 S5        30.21S
STAPLES        FAIR      37  36  93 S3        30.21F
$$
  *****  WEATHER ELSEWHERE ACROSS MINNESOTA  *****

CITY           SKY/WX    TMP DP  RH WIND       PRES   REMARKS
DULUTH         FAIR      43  27  53 SW3       30.21F
INTRNTL FALLS  MOCLDY    45  33  63 SW5       30.13F
ELY            FAIR      43  27  52 SW3       30.18F
CLOQUET        FAIR      37  27  65 SW3       30.22S
WHEATON        FAIR      41  36  81 S6        30.22S
BRAINERD       FAIR      33  28  81 CALM      30.22F
HIBBING        FAIR      30  25  81 S3        30.19F
ALEXANDRIA     FAIR      42  35  76 S5        30.22F
SAINT CLOUD    FAIR      36  34  92 CALM      30.23F
MINNEAPOLIS    FAIR      46  37  71 SE3       30.24F
$$

  *****  WEATHER ACROSS SOUTH DAKOTA  *****

CITY           SKY/WX    TMP DP  RH WIND       PRES   REMARKS
SIOUX FALLS    FAIR      41  34  76 E6        30.20F
BROOKINGS      FAIR      39  35  86 SE3       30.21S
WATERTOWN      FAIR      41  36  82 S8        30.19S
HURON          FAIR      43  37  79 SE7       30.18
SISSETON         N/A     40  35  83 S8        30.19S
ABERDEEN       FAIR      38  35  89 S8        30.18S
MITCHELL       FAIR      43  39  86 SE7       30.19S
PIERRE         FAIR      43  37  79 SE6       30.14R
MOBRIDGE       FAIR      43  35  73 SE6       30.11R
RAPID CITY     FAIR      43  37  79 E5        30.09S
$$

  *****  SOME WEATHER IN NEARBY STATES *****

CITY           SKY/WX    TMP DP  RH WIND       PRES   REMARKS
GLASGOW MT     FAIR      46  26  45 NE15      30.18R
GREAT FALLS MT FAIR      40  24  53 NE15      30.23R
CHEYENNE WY    FAIR      39  36  89 SW7       30.14F
SCOTTSBLUFF NE FAIR      40  38  93 E12       30.13F
OMAHA NE       FAIR      46  29  51 W6        30.17S
DES MOINES IA  FAIR      53  31  42 E6        30.18F
DAVENPORT IA   FAIR      45  27  49 E9        30.21F
CHICAGO IL     MOCLDY    46  28  49 NE6       30.21F
EAU CLAIRE WI  FAIR      40  24  53 CALM      30.25S
LA CROSSE WI   FAIR      43  30  60 E6        30.26S
$$

  *****  SOME NATIONAL WEATHER *****

CITY           SKY/WX    TMP DP  RH WIND       PRES   REMARKS
LA GUARDIA NY  FAIR      49  32  52 CALM      30.40R
RALEIGH NC     CLOUDY    53  42  66 E6        30.31F
ATLANTA GA     RAIN      58  58 100 SE17G23   29.96F FOG
NEW ORLEANS LA FAIR      62  52  69 NW10      29.97S
OKLAHOMA CITY  CLOUDY    53  48  83 N12       30.06S
ALBUQUERQUE NM FAIR      56  26  31 SE7       30.10S
SALT LAKE CITY MOCLDY    63  32  31 SE8       29.91S
LOS ANGELES CA FAIR      58  56  93 W3        29.97R
BOISE ID       FAIR      46  26  45 W12       30.07R
SEATTLE WA     FAIR      48  37  65 N5        30.33R
$$

*** WEATHER ACROSS MANITOBA...SASKATCHEWAN AND ONTARIO ***
                ***ONTARIO***

CITY           SKY/WX    TMP DP  RH WIND       PRES   REMARKS
GERALDTON      MOCLDY    39  19  45 SW8       30.13F
THUNDER BAY    CLEAR     28  25  86 NW3       30.19F
SIOUX LOOKOUT  MOCLDY    46  36  66 S3        30.05F
TORONTO        CLEAR     39  25  56 N2        30.36F
BIG TROUT LK   CLEAR     41  30  65 SW12G17   29.77F
PICKLE LAKE    NOT AVBL
DRYDEN         MOCLDY    46  37  71 SW9       30.06F
KENORA         PTCLDY    43  37  81 S10       30.06S
$$
                *** MANITOBA***

CITY           SKY/WX    TMP DP  RH WIND       PRES   REMARKS
BRANDON        MOCLDY    36  30  80 W7        30.10R
DAUPHIN        CLEAR     43  36  75 W20G25    30.04R
ISLAND LAKE    PTCLDY    45  34  65 W18G24    29.74
PILOT MOUND      N/A     41  30  65 W6          N/A
THE PAS        LGT RAIN  34  32  93 W16G24    29.92R WCI  23
THOMPSON       FLURRIES  30  27  86 NW16      29.75  WCI  19
WINNIPEG       PTCLDY    46  34  61 W10       30.06R
LYNN LAKE      FLURRIES  21  18  86 NW14G20   29.89R WCI   8
CHURCHILL      FRZ RAIN  23  21  93 NE30G41   29.72R DRFTSNOWWCI   5
GILLAM         LGT RAIN  34  34 100 W18G24    29.57R WCI  23
$$
                ***SASKATCHEWAN***

CITY           SKY/WX    TMP DP  RH WIND       PRES   REMARKS
ESTEVAN        PTCLDY    34  27  75 W7        30.17R
KINDERSLEY     PTCLDY    36  32  87 NW8       30.25R
LLOYDMINSTER   CLEAR     32  28  86 W13       30.21R WCI  22
PRINCE ALBERT  CLEAR     39  34  81 NW13G18   30.12R
REGINA         CLEAR     34  30  86 NW7       30.17R
YORKTON        CLEAR     39  34  81 W13G18    30.10R
N. BATTLEFORD  MOCLDY    37  32  81 NW10      30.22R
LA RONGE       LGT RAIN  34  34 100 NW8       30.03R
SASKATOON      PTCLDY    37  32  81 W10       30.19R
SWIFT CURRENT  CLEAR     34  28  80 NW8       30.21R
$$
NOTE: THESE ARE AUTOMATED STATIONS WITH LIMITED QUALITY CONTROL
      "FAIR" INDICATES FEW OR NO CLOUDS BELOW 12,000 FEET WITH NO
      SIGNIFICANT WEATHER AND/OR OBSTRUCTIONS TO VISIBILITY.
      SKY/WX - SKY CONDITION AND SIGNIFICANT WEATHER.
      TMP - AIR TEMPERATURE.    DP   - DEWPOINT TEMPERATURE.
      RH  - RELATIVE HUMIDITY.  PRES - PRESSURE.
      HX  - HEAT INDEX.         WCI  - WIND CHILL INDEX.
$



USA.gov is the U.S. government's official web portal to all federal, state and local government web resources and services.